Location: Unspecified
(33.9239°N, 118.0544°W)
Time: 21:51:32
(UTC-07:00)

Resurs 1-4 Rocket - Visible Passes

Search period start: 30 October 2014 00:00
Search period end: 08 November 2014 23:00
Orbit: 801 x 814 km, 98.4° (Epoch: 29 October)

Date Brightness Start Highest point End Pass type
(mag) Time Alt. Az. Time Alt. Az. Time Alt. Az.
30 Oct 4.8 03:39:58 10° NE 03:41:28 14° ENE 03:41:28 14° ENE visible
30 Oct 2.5 05:18:20 10° N 05:22:32 43° NW 05:22:32 43° NW visible
31 Oct 2.6 04:53:45 10° N 04:57:35 49° N 04:57:35 49° N visible
01 Nov 3.4 04:29:26 10° NNE 04:32:37 35° NE 04:32:37 35° NE visible
01 Nov 3.6 06:10:58 10° NNW 06:13:42 15° WNW 06:13:42 15° WNW visible
02 Nov 4.2 03:05:27 10° NE 03:07:40 22° NE 03:07:40 22° NE visible
02 Nov 3.2 04:45:30 10° NNW 04:48:44 24° NW 04:48:44 24° NW visible
03 Nov 4.9 02:41:59 10° NE 02:42:42 12° ENE 02:42:42 12° ENE visible
03 Nov 3.0 04:20:34 10° N 04:23:46 33° NNW 04:23:46 33° NNW visible
04 Nov 3.2 03:55:56 10° N 03:58:49 33° N 03:58:49 33° N visible
05 Nov 3.8 03:31:36 10° NNE 03:33:51 26° NNE 03:33:51 26° NNE visible
05 Nov 3.8 05:13:20 10° NNW 05:14:55 14° NW 05:14:55 14° NW visible
06 Nov 4.5 03:07:33 10° NNE 03:08:53 17° NE 03:08:53 17° NE visible
06 Nov 3.5 04:47:46 10° NNW 04:49:57 20° NW 04:49:57 20° NW visible
07 Nov 3.5 04:22:47 10° N 04:25:00 24° NNW 04:25:00 24° NNW visible
08 Nov 3.7 03:58:08 10° N 04:00:02 23° N 04:00:02 23° N visible
